FW2547 Weather Reports


Display with metric or nautical units.
time (UTC)temp
F
wind
direction
speed
MPH
gust
MPH
rain 1hr
in
rain 24hr
in
rain mn
in
humidity
%
barometer
mb
20260508014538 80 106 3.0 7.0 0.00 0.00 0.00 15 1007.3
20260508013050 80 76 4.0 8.0 0.00 0.00 0.00 15 1007.4
20260508011537 81 117 2.0 8.0 0.00 0.00 0.00 14 1007.3
20260508010035 81 100 0.0 6.0 0.00 0.00 0.00 14 1007.5
20260508004533 81 74 8.0 12.0 0.00 0.00 0.00 14 1007.4
20260508003033 81 59 5.0 9.0 0.00 0.00 0.00 14 1007.5
20260508001558 81 44 3.0 9.0 0.00 0.00 0.00 14 1007.5
20260508000031 81 115 6.0 12.0 0.00 0.00 0.00 14 1007.6
20260507234534 82 9 2.0 4.0 0.00 0.00 0.00 14 1007.5
20260507233027 82 343 1.0 3.0 0.00 0.00 0.00 15 1007.8
20260507231533 81 174 6.0 9.0 0.00 0.00 0.00 15 1008.0
20260507230026 81 186 6.0 12.0 0.00 0.00 0.00 15 1008.2
20260507224532 81 218 5.0 9.0 0.00 0.00 0.00 15 1008.3
20260507223019 81 88 3.0 6.0 0.00 0.00 0.00 16 1008.4
20260507221518 80 22 6.0 11.0 0.00 0.00 0.00 16 1008.5
20260507220025 79 159 4.0 10.0 0.00 0.00 0.00 17 1008.8
20260507214515 79 161 12.0 17.0 0.00 0.00 0.00 16 1009.0
20260507213011 81 207 6.0 12.0 0.00 0.00 0.00 16 1009.3
20260507211506 80 311 4.0 11.0 0.00 0.00 0.00 18 1009.4
20260507210006 79 161 6.0 11.0 0.00 0.00 0.00 17 1009.8
20260507204501 78 145 3.0 11.0 0.00 0.00 0.00 17 1009.9
20260507203101 79 130 6.0 12.0 0.00 0.00 0.00 18 1010.2
20260507201559 77 159 4.0 11.0 0.00 0.00 0.00 18 1010.5
20260507194552 77 36 2.0 11.0 0.00 0.00 0.00 19 1010.9
20260507193051 75 165 4.0 12.0 0.00 0.00 0.00 20 1011.2
20260507191552 75 43 5.0 12.0 0.00 0.00 0.00 20 1011.4
20260507190047 75 163 6.0 10.0 0.00 0.00 0.00 21 1011.7
20260507184541 74 134 6.0 11.0 0.00 0.00 0.00 22 1011.9
20260507183042 73 129 9.0 13.0 0.00 0.00 0.00 23 1012.2
20260507181535 73 137 3.0 14.0 0.00 0.00 0.00 25 1012.4
20260507180031 71 74 7.0 11.0 0.00 0.00 0.00 27 1012.6
20260507174539 70 86 6.0 12.0 0.00 0.00 0.00 28 1012.6
20260507173027 69 82 3.0 14.0 0.00 0.00 0.00 28 1012.9
20260507171520 69 52 5.0 17.0 0.00 0.00 0.00 29 1013.1
20260507170023 68 82 10.0 15.0 0.00 0.00 0.00 30 1013.4
20260507164511 67 65 10.0 14.0 0.00 0.00 0.00 31 1013.6
20260507163007 67 136 5.0 15.0 0.00 0.00 0.00 33 1013.7
20260507161504 65 61 8.0 17.0 0.00 0.00 0.00 34 1013.9
20260507160059 65 53 12.0 18.0 0.00 0.00 0.00 35 1014.1
20260507154654 64 76 10.0 17.0 0.00 0.00 0.00 35 1014.2
20260507153058 63 71 11.0 16.0 0.00 0.00 0.00 35 1014.2
20260507151545 63 57 10.0 16.0 0.00 0.00 0.00 37 1014.3
20260507150043 62 51 12.0 16.0 0.00 0.00 0.00 38 1014.4
20260507144536 61 74 11.0 17.0 0.00 0.00 0.00 39 1014.4
20260507143035 61 74 15.0 18.0 0.00 0.00 0.00 38 1014.6
20260507141528 60 65 12.0 18.0 0.00 0.00 0.00 39 1014.6
20260507140022 60 74 14.0 19.0 0.00 0.00 0.00 39 1014.5
20260507134519 60 71 13.0 17.0 0.00 0.00 0.00 38 1014.6
20260507133014 59 64 10.0 16.0 0.00 0.00 0.00 40 1014.4
20260507131513 58 46 14.0 19.0 0.00 0.00 0.00 41 1014.2
20260507130111 58 71 8.0 14.0 0.00 0.00 0.00 41 1014.2
20260507124605 57 64 10.0 15.0 0.00 0.00 0.00 41 1014.0
20260507123058 57 123 8.0 11.0 0.00 0.00 0.00 34 1013.7
20260507121605 56 156 3.0 7.0 0.00 0.00 0.00 30 1013.4
20260507120050 57 128 4.0 10.0 0.00 0.00 0.00 27 1013.3
20260507114601 58 78 7.0 12.0 0.00 0.00 0.00 25 1013.1
20260507113045 58 51 7.0 13.0 0.00 0.00 0.00 25 1013.0
20260507111542 60 40 12.0 19.0 0.00 0.00 0.00 25 1013.0
20260507110041 60 231 0.0 3.0 0.00 0.00 0.00 27 1012.5
20260507104539 60 173 2.0 5.0 0.00 0.00 0.00 27 1012.4
20260507103037 61 103 1.0 7.0 0.00 0.00 0.00 28 1012.5
20260507101538 60 60 2.0 6.0 0.00 0.00 0.00 28 1012.5
20260507100039 60 67 6.0 10.0 0.00 0.00 0.00 29 1012.7
20260507094537 60 66 4.0 5.0 0.00 0.00 0.00 29 1012.5
20260507093029 61 132 2.0 4.0 0.00 0.00 0.00 27 1012.5
20260507091525 62 132 1.0 3.0 0.00 0.00 0.00 25 1012.3
20260507090023 63 132 1.0 4.0 0.00 0.00 0.00 22 1012.4
20260507084519 63 132 1.0 4.0 0.00 0.00 0.00 21 1012.5
20260507083018 64 269 1.0 4.0 0.00 0.00 0.00 19 1012.5
20260507081533 64 250 0.0 2.0 0.00 0.00 0.00 19 1012.7
20260507080013 64 251 2.0 5.0 0.00 0.00 0.00 18 1012.8
20260507074522 65 270 4.0 6.0 0.00 0.00 0.00 18 1012.7
20260507073008 66 292 7.0 9.0 0.00 0.00 0.00 17 1012.6
20260507071507 66 286 3.0 5.0 0.00 0.00 0.00 18 1012.6
20260507070010 66 267 4.0 7.0 0.00 0.00 0.00 17 1012.5
20260507064501 67 290 2.0 5.0 0.00 0.00 0.00 18 1012.4
20260507063059 67 290 3.0 5.0 0.00 0.00 0.00 18 1012.4
20260507061601 68 290 4.0 8.0 0.00 0.00 0.00 18 1012.2
20260507060058 67 275 4.0 7.0 0.00 0.00 0.00 19 1012.1
20260507054636 68 262 2.0 6.0 0.00 0.00 0.00 19 1011.9
20260507053054 68 300 4.0 7.0 0.00 0.00 0.00 20 1011.6
20260507051552 69 292 4.0 5.0 0.00 0.00 0.00 20 1011.8
20260507050056 69 269 2.0 6.0 0.00 0.00 0.00 19 1011.8
20260507044556 69 300 2.0 4.0 0.00 0.00 0.00 20 1011.8
20260507043050 71 313 1.0 3.0 0.00 0.00 0.00 19 1011.7
20260507041559 72 313 2.0 6.0 0.00 0.00 0.00 18 1011.4
20260507040048 72 331 3.0 5.0 0.00 0.00 0.00 16 1011.2
20260507034556 73 330 3.0 9.0 0.00 0.00 0.00 17 1011.2
20260507033053 73 323 5.0 9.0 0.00 0.00 0.00 16 1011.0
20260507031602 74 336 3.0 6.0 0.00 0.00 0.00 16 1010.9
20260507030053 74 344 3.0 8.0 0.00 0.00 0.00 16 1010.7
20260507024546 74 338 3.0 9.0 0.00 0.00 0.00 16 1010.3
20260507023046 75 328 3.0 9.0 0.00 0.00 0.00 16 1010.1
20260507021544 75 310 7.0 11.0 0.00 0.00 0.00 16 1010.0
20260507020047 75 298 7.0 15.0 0.00 0.00 0.00 16 1009.7
20260507014550 76 301 12.0 17.0 0.00 0.00 0.00 16 1009.5